SL-16 DEB

Satellite information

Favourite Embed

Satellite Type and Status

DEBRISIN ORBIT

Key statistics

Satellite SL-16 DEB at a glance.

Uptime

12042

Days in orbit

Revolutions

≈ 14.0

Per day

Orbit

LEO

Low Earth Orbit

Inclination

71.2

Latest

Satellite identification and parameters

Extended collection of information and parameters for SL-16 DEB.

Object identification

Identified? True

Debris? True

Object name: SL-16 DEB

International designator: 1992-093DS

Object number (NORAD): 22425

Object ID (CCSDS): 22425

Country: COMMONWEALTH OF INDEPENDENT STATES (CIS)

Current information (Y/N): Y

RCS size: SMALL

Orbital parameters

Period: 103.224 minutes

Inclination: 71.1764 deg

SMA: 7289.229 km

Apoapsis: 992.004 km

Periapsis: 830.185 km

RAAN: 225.1374 deg

Eccentricy: 0.01109986

Argument of periapsis: 155.3457 deg

Mean anomaly: 271.3174 deg

Mean motion: 13.9501976 rev/day

Mean motion (dot): 0.0000031 rev/day2

B* drag term: 0.00024948742 1/REarth

Two-line elements (TLE)

Creation date: Dec. 14, 2025, 3:07 a.m.

Reference frame: TEME

Reference center: EARTH

Epoch: Dec. 13, 2025, 4:59 p.m. UTC

TLE line 0: 0 SL-16 DEB

TLE line 1: 1 22425U 92093DS 25347.70811212 .00000310 00000-0 24949-3 0 9996

TLE line 2: 2 22425 71.1764 225.1374 0110999 155.3457 271.3174 13.95019760672591

Live tracking on map

Real-time ground track for satellite SL-16 DEB.

In-orbit conjunctions

A list of the most updated potential collisions computed for object SL-16 DEB.

Target Orbit TCA Probability of collision Miss distance Type
THORAD AGENA D DEB SSO 2025-11-20 04:40:50 0.0001010191 33.0 (m) DEBRIS
CZ-6A DEB LEO 2025-02-08 04:01:59 0.0001315895 493.0 (m) DEBRIS

Associated space launch

Second generation ELING satellite

SL-16 DEB was lifted into orbit during the mission ‘Zenit-2 | Tselina-2 12’, on board a Zenit-2 space rocket.

The launch took place on Dec. 25, 1992, 5:56 a.m. from 45/1.

For more information about the launch, click the button.

Launch to space Zenit-2 | Tselina-2 12
Zenit-2 | Tselina-2 12

Agency: N/A

Status: Launch Successful

Launch date: Dec. 25, 1992, 5:56 a.m. UTC

Rocket: Zenit-2

Launch pad: 45/1

Location: Baikonur Cosmodrome, Republic of Kazakhstan

...

Latest news about this satellite

There are no fresh news available about this satellite. Check back as we update our databases every day.


Newsletter sign-up

Weekly statistics, charts and insights to help you stay on top of the space industry.